Temp
17 18 19 20 19 17 18 14 14 12 18 18 18 17 17 15 15 14 14 13 13 12 12 11 10 10 10 9 11 10 11 9 11 11 11 10 10 10 10 11 10 10 10 10
18 18 19 21 16 18 19 15 18 18 19 19 19 19 18 16 16 15 15 14 13 13 12 11 11 10 10 9 11 11 10 12 11 12 12 11 9 11 10 11 11 11 10 10
18 19 20 20 21 20 20 21 20 18 19 19 19 18 14 18 16 16 15 15 14 13 13 12 11 10 10 10 11 12 11 12 11 12 11 10 9 11 8 10 9 10 10 10
19 20 20 20 21 20 21 21 20 20 20 20 19 19 19 18 16 17 16 16 15 14 13 12 11 11 10 10 11 12 12 12 12 11 11 11 11 11 11 8 9 9 9 10
19 20 20 20 20 20 20 20 20 21 21 20 18 17 16 17 18 17 16 16 16 15 14 13 12 12 11 10 10 11 11 12 12 12 12 11 11 11 10 9 9 10 9 10
19 20 20 20 20 20 20 20 20 20 21 21 22 18 14 13 15 14 17 17 16 16 15 14 13 13 12 11 11 10 11 11 12 11 12 11 11 11 8 8 10 9 10 10
19 19 20 20 20 20 20 20 21 21 22 22 23 19 17 16 17 17 18 17 17 16 15 14 14 13 13 12 11 10 11 11 11 11 11 11 11 11 10 10 9 10 10 10
19 20 19 19 19 19 20 20 21 21 23 23 21 17 16 18 19 19 19 19 17 17 16 15 14 14 13 13 12 11 11 11 11 12 11 11 11 11 11 10 10 10 10 9
20 20 20 20 19 19 20 20 20 21 22 20 19 16 17 17 19 20 20 19 18 17 16 16 15 14 14 13 12 12 11 12 12 12 11 11 12 11 11 10 10 9 9 8
19 20 20 20 20 19 19 20 21 21 21 20 19 18 17 17 19 20 20 20 19 18 17 16 15 15 14 13 12 12 13 13 12 12 12 12 12 11 11 11 8 9 10 8
19 20 20 20 20 20 20 19 20 21 22 22 20 18 21 20 20 21 21 20 19 18 17 16 16 15 14 14 13 12 14 13 13 13 13 13 12 12 11 11 10 10 10 9
19 19 20 20 20 20 20 20 20 21 21 21 22 20 20 20 21 21 21 20 20 19 17 17 16 15 15 14 13 14 15 14 14 13 13 12 12 12 11 10 10 10 10 10
19 19 20 20 21 20 19 20 20 20 21 21 22 22 21 20 21 21 21 21 20 19 18 17 16 16 15 14 14 15 15 14 14 13 12 12 12 12 11 10 10 10 10 10
18 19 20 20 21 21 20 20 20 20 21 21 21 22 21 18 20 21 21 20 20 19 18 17 16 16 15 15 15 16 15 14 14 13 13 12 12 12 11 11 10 10 10 10
18 18 19 20 20 21 21 20 20 20 21 21 22 22 22 21 20 20 20 19 19 19 18 17 17 16 15 15 15 16 15 14 14 13 12 12 12 12 12 11 11 11 11 11
17 18 18 19 20 20 20 20 20 20 20 20 21 21 21 21 20 20 20 19 19 19 18 17 17 16 16 16 16 16 15 14 14 14 12 12 12 12 12 12 11 11 11 11
17 18 18 19 20 20 20 20 20 20 20 20 20 20 21 20 20 19 19 19 19 19 18 17 17 17 16 18 17 16 16 15 15 14 13 12 12 13 12 12 11 11 11 11
18 18 18 19 19 20 20 20 20 20 20 20 20 20 20 20 19 19 19 19 19 19 18 17 17 16 16 17 17 16 16 15 15 14 13 13 13 14 13 12 12 12 11 11
16 14 17 18 19 20 20 20 20 20 20 20 20 20 20 20 19 18 18 18 18 18 18 17 17 16 16 17 17 17 16 15 15 15 14 13 13 14 14 13 12 12 11 11
17 16 17 16 16 20 20 20 20 20 19 19 18 18 18 17 18 17 18 18 18 18 18 17 16 16 16 16 17 18 17 17 16 16 15 14 14 14 14 13 12 12 11 11
17 16 15 13 15 18 18 18 19 18 17 17 17 17 16 16 16 18 18 18 18 17 17 17 16 16 16 16 18 18 18 17 16 16 15 15 15 14 14 13 13 13 12 12
16 17 17 17 18 17 17 17 17 16 16 16 17 17 17 16 15 18 17 18 18 17 16 16 16 16 16 16 18 18 17 17 16 16 16 15 15 15 14 13 13 13 13 12
16 17 17 17 18 17 16 17 16 16 16 17 16 17 17 16 15 15 16 18 18 18 18 17 18 16 16 16 18 18 17 17 17 16 16 15 15 14 14 13 13 14 13 13
14 16 17 17 17 16 14 12 15 15 15 16 16 16 16 16 16 15 15 17 18 18 18 18 17 15 17 18 18 18 17 17 16 16 15 15 15 14 14 13 13 13 13 13
13 13 16 16 17 15 14 14 14 14 15 16 16 16 16 16 14 14 13 14 16 17 17 17 17 16 18 17 17 17 17 16 16 15 15 15 14 14 13 13 13 13 13 13
11 12 13 16 15 14 13 12 13 13 14 15 16 16 15 15 15 14 13 15 16 17 17 17 17 17 17 17 17 17 16 16 15 15 15 15 14 14 13 13 13 13 13 12
Height
3168 3170 3166 3163 3163 3169 3167 3179 3175 3170 3174 3176 3178 3176 3177 3180 3183 3183 3183 3185 3186 3188 3190 3191 3193 3195 3196 3196 3196 3199 3201 3201 3202 3203 3203 3206 3207 3206 3207 3206 3208 3210 3212 3213
3167 3164 3163 3164 3167 3168 3164 3163 3167 3158 3167 3174 3174 3172 3165 3174 3179 3182 3183 3184 3185 3187 3189 3189 3190 3193 3196 3195 3195 3198 3199 3200 3202 3203 3203 3205 3205 3202 3201 3201 3203 3205 3207 3210
3161 3161 3162 3162 3163 3165 3165 3163 3167 3164 3167 3170 3170 3169 3167 3176 3181 3183 3183 3184 3185 3186 3188 3188 3188 3191 3194 3193 3194 3197 3198 3200 3201 3202 3203 3204 3201 3198 3192 3202 3204 3205 3207 3207
3159 3158 3160 3161 3160 3163 3163 3162 3163 3165 3166 3164 3167 3171 3170 3177 3180 3182 3183 3184 3184 3184 3186 3187 3187 3189 3192 3192 3192 3194 3197 3199 3200 3200 3200 3202 3202 3202 3201 3204 3207 3210 3211 3210
3156 3156 3156 3157 3159 3162 3162 3163 3162 3162 3161 3160 3160 3168 3170 3174 3179 3180 3181 3181 3183 3182 3184 3186 3187 3188 3191 3191 3191 3191 3195 3197 3199 3199 3199 3201 3203 3202 3208 3207 3197 3207 3215 3215
3153 3153 3155 3156 3158 3159 3160 3161 3160 3160 3158 3154 3146 3150 3164 3169 3172 3175 3179 3177 3179 3180 3182 3183 3186 3188 3190 3191 3191 3191 3193 3195 3197 3199 3199 3200 3200 3202 3208 3209 3206 3208 3213 3213
3149 3150 3150 3153 3155 3157 3158 3159 3157 3155 3152 3147 3141 3149 3156 3163 3162 3162 3167 3173 3174 3177 3178 3180 3184 3186 3187 3190 3190 3190 3190 3194 3195 3197 3199 3200 3199 3200 3205 3208 3212 3213 3210 3208
3143 3145 3148 3149 3152 3154 3154 3157 3155 3150 3140 3139 3143 3154 3168 3159 3153 3156 3163 3166 3169 3172 3175 3178 3181 3184 3184 3187 3189 3189 3188 3192 3194 3196 3198 3199 3199 3199 3200 3204 3205 3206 3202 3204
3136 3136 3137 3141 3147 3152 3151 3150 3154 3148 3141 3142 3160 3158 3159 3163 3159 3154 3158 3160 3164 3167 3172 3175 3178 3182 3183 3185 3187 3187 3188 3191 3193 3194 3196 3198 3198 3199 3200 3201 3200 3197 3202 3200
3134 3134 3133 3135 3141 3145 3147 3150 3149 3146 3144 3145 3155 3153 3158 3154 3151 3154 3157 3158 3160 3165 3169 3172 3175 3178 3182 3184 3185 3184 3186 3190 3192 3193 3195 3197 3199 3200 3201 3201 3197 3202 3206 3201
3134 3132 3133 3133 3136 3139 3143 3145 3144 3142 3140 3139 3144 3151 3148 3147 3150 3153 3154 3155 3156 3160 3165 3169 3172 3175 3180 3183 3185 3183 3184 3188 3189 3191 3194 3197 3198 3200 3202 3201 3201 3202 3206 3212
3129 3130 3128 3130 3133 3135 3137 3139 3142 3140 3141 3137 3136 3144 3147 3150 3151 3151 3154 3154 3157 3158 3161 3166 3169 3173 3177 3179 3181 3181 3183 3185 3188 3191 3193 3196 3198 3199 3201 3201 3201 3198 3202 3203
3127 3128 3126 3125 3126 3128 3132 3135 3136 3138 3139 3135 3135 3134 3137 3146 3150 3150 3151 3151 3153 3157 3158 3163 3167 3170 3174 3175 3177 3179 3181 3184 3188 3191 3191 3194 3197 3198 3200 3201 3200 3200 3200 3202
3122 3122 3123 3120 3116 3120 3122 3127 3131 3132 3133 3135 3133 3134 3134 3143 3146 3148 3148 3146 3148 3153 3155 3161 3164 3167 3170 3171 3173 3176 3179 3183 3187 3189 3190 3193 3195 3197 3199 3200 3200 3201 3201 3203
3122 3121 3118 3116 3117 3118 3118 3120 3124 3127 3128 3129 3131 3133 3136 3136 3139 3145 3145 3147 3147 3151 3154 3158 3162 3164 3167 3168 3170 3174 3178 3182 3184 3186 3188 3190 3193 3196 3198 3199 3201 3202 3203 3204
3117 3119 3117 3115 3114 3113 3116 3118 3118 3123 3126 3125 3127 3130 3132 3134 3138 3140 3144 3145 3146 3149 3153 3156 3160 3161 3164 3165 3168 3172 3176 3179 3181 3184 3186 3186 3192 3195 3197 3199 3202 3203 3203 3205
3111 3113 3114 3113 3112 3110 3111 3114 3114 3117 3122 3125 3126 3129 3132 3133 3135 3135 3138 3142 3144 3143 3149 3152 3156 3158 3161 3163 3167 3170 3174 3176 3178 3182 3185 3185 3190 3192 3195 3198 3200 3202 3203 3203
3104 3107 3109 3109 3108 3107 3107 3108 3111 3114 3116 3120 3124 3127 3129 3132 3133 3136 3136 3137 3140 3142 3144 3148 3152 3157 3159 3162 3166 3169 3172 3173 3175 3178 3180 3183 3187 3190 3192 3195 3196 3199 3200 3202
3099 3099 3100 3102 3102 3102 3102 3105 3106 3109 3115 3118 3121 3125 3127 3129 3127 3128 3130 3134 3138 3140 3141 3145 3149 3155 3157 3157 3162 3165 3167 3169 3171 3172 3175 3180 3185 3187 3189 3191 3193 3195 3197 3197
3097 3096 3096 3097 3102 3096 3100 3101 3103 3108 3113 3115 3119 3122 3123 3124 3125 3126 3128 3131 3133 3136 3140 3140 3146 3151 3155 3155 3157 3160 3163 3164 3166 3169 3172 3176 3181 3184 3186 3188 3190 3190 3192 3193
3092 3094 3095 3101 3096 3094 3097 3102 3101 3106 3114 3112 3116 3119 3122 3124 3123 3124 3125 3128 3129 3131 3136 3138 3142 3147 3151 3150 3152 3156 3158 3160 3164 3167 3170 3173 3177 3180 3183 3185 3186 3186 3187 3188
3089 3092 3092 3094 3088 3094 3095 3100 3104 3106 3108 3112 3115 3116 3118 3120 3121 3125 3127 3127 3127 3128 3130 3135 3139 3142 3147 3146 3148 3152 3155 3158 3161 3164 3167 3170 3173 3176 3180 3181 3182 3183 3183 3184
3083 3085 3088 3090 3091 3087 3090 3100 3103 3109 3108 3108 3114 3115 3116 3117 3120 3123 3122 3123 3123 3125 3127 3130 3134 3139 3142 3143 3144 3146 3150 3154 3156 3159 3163 3166 3168 3171 3175 3177 3178 3179 3179 3180
3072 3079 3081 3087 3089 3087 3081 3086 3107 3106 3107 3108 3110 3111 3113 3115 3117 3120 3119 3119 3120 3121 3123 3126 3130 3135 3136 3138 3139 3142 3144 3148 3151 3155 3158 3161 3163 3166 3170 3172 3174 3176 3176 3177
3069 3067 3075 3082 3082 3079 3084 3089 3095 3099 3100 3104 3107 3108 3110 3113 3114 3117 3117 3116 3117 3119 3120 3122 3126 3129 3131 3134 3136 3138 3141 3143 3146 3150 3153 3155 3157 3159 3163 3165 3168 3170 3172 3174
3069 3070 3071 3078 3076 3081 3082 3087 3089 3091 3094 3099 3103 3105 3108 3109 3110 3112 3114 3112 3115 3115 3117 3120 3123 3127 3130 3132 3135 3137 3138 3140 3142 3145 3147 3149 3150 3152 3154 3157 3163 3165 3168 3171
Wind_Speed
16 15 18 17 17 21 12 21 19 34 22 18 16 18 18 18 17 18 18 20 20 20 20 21 19 19 21 17 12 18 14 17 12 11 11 8 9 9 9 8 7 5 2 0
19 22 17 11 17 11 16 39 15 29 18 15 16 17 21 18 19 19 18 20 20 20 22 23 20 20 22 21 16 13 13 14 11 10 10 8 8 10 12 11 12 10 8 6
25 24 16 19 14 9 13 16 6 11 13 12 9 19 15 10 13 17 18 20 20 22 24 24 21 21 22 22 16 13 15 11 12 11 10 12 14 13 11 7 10 9 8 9
25 21 19 18 16 11 17 12 4 10 8 14 14 12 13 15 16 20 21 21 22 23 23 24 23 22 20 21 16 13 14 13 12 10 10 9 9 6 7 6 5 8 10 6
26 25 25 18 15 15 19 9 13 11 13 12 18 10 13 25 23 22 22 22 23 23 25 27 25 22 22 21 18 14 14 14 12 12 12 9 8 10 8 7 17 9 6 3
24 24 23 24 18 20 18 17 16 15 17 21 27 27 19 27 23 27 22 22 23 25 24 25 25 24 22 23 21 20 13 14 13 13 14 11 10 11 9 9 7 10 12 6
24 27 22 21 26 21 20 17 18 15 16 15 22 13 16 27 20 26 23 20 23 25 25 26 27 26 24 24 24 21 19 13 15 14 15 13 12 13 13 9 15 13 13 10
24 23 29 22 25 23 26 21 24 16 14 8 20 11 1 7 14 9 18 21 19 24 27 26 26 26 27 22 25 22 24 14 16 15 16 15 13 13 13 10 12 9 14 17
21 25 20 29 26 26 26 26 26 31 33 2 18 12 15 13 20 22 17 23 16 24 28 26 26 26 26 24 25 27 23 16 16 14 15 14 12 12 10 12 13 16 15 13
24 19 11 16 25 25 28 24 26 27 20 13 13 1 11 25 27 12 17 12 15 21 26 27 27 26 26 24 22 27 22 15 14 13 12 11 9 9 6 8 14 13 11 18
22 22 16 17 19 24 25 28 31 29 25 17 7 16 4 30 21 9 8 7 18 19 25 28 27 26 26 25 24 29 18 18 14 10 10 9 8 6 4 4 9 12 9 4
21 21 21 16 16 19 25 26 29 28 23 27 24 20 5 21 9 7 6 9 11 16 21 29 27 25 26 27 28 25 16 17 12 8 9 10 8 6 8 8 9 11 4 2
19 22 21 20 21 16 21 26 27 27 31 31 22 23 6 10 7 4 6 10 13 14 20 28 27 28 29 30 25 15 13 13 11 13 8 11 9 8 7 5 5 1 2 1
16 17 22 23 18 20 23 22 25 30 28 29 32 23 7 14 18 14 8 14 12 10 23 26 28 30 30 29 17 14 9 11 12 15 7 3 6 8 7 4 3 2 1 2
20 22 19 24 16 13 11 20 18 30 30 29 26 21 23 10 13 7 7 5 11 9 22 27 28 29 27 29 21 16 11 15 17 12 13 7 3 9 8 6 2 1 1 1
23 23 21 24 19 17 10 18 18 23 26 24 22 16 9 5 2 6 9 6 11 12 24 26 29 28 28 23 18 14 15 20 19 18 16 7 8 10 10 8 5 3 4 3
26 26 24 24 20 17 12 15 18 18 24 21 23 19 14 12 10 5 3 7 13 15 19 30 33 33 27 11 12 14 17 21 14 18 18 21 12 15 14 12 11 8 6 11
25 28 27 26 23 16 18 14 15 18 16 19 15 15 14 10 6 5 10 10 11 19 19 31 30 31 30 19 16 18 20 21 14 21 23 19 12 15 15 15 14 11 11 11
20 22 18 19 26 18 18 15 12 19 16 13 12 10 15 12 6 7 9 11 10 17 21 28 30 30 28 22 18 20 21 19 14 19 25 24 17 15 14 14 14 14 14 12
25 16 24 23 25 15 14 20 18 17 18 10 11 2 4 3 5 5 16 13 20 18 21 22 29 28 30 33 21 18 19 18 18 14 17 24 21 18 14 13 13 13 12 11
32 21 22 30 32 4 16 7 12 15 7 11 10 10 6 4 5 11 17 11 9 16 18 23 28 28 30 31 20 23 20 19 21 21 19 23 24 22 17 14 14 11 11 11
36 31 33 36 17 16 17 14 7 11 9 6 6 10 9 5 2 12 15 16 10 25 20 25 27 28 30 35 20 17 23 22 24 25 23 23 28 26 21 17 14 12 12 13
38 40 33 31 21 13 26 28 9 16 18 8 6 6 5 6 2 6 15 12 11 16 26 28 29 30 32 36 31 25 27 26 26 28 28 26 31 29 25 21 18 15 13 13
21 35 36 24 31 10 17 21 27 13 12 8 8 4 7 8 4 6 11 12 11 11 15 17 25 32 32 33 31 30 30 31 31 31 30 29 32 34 29 27 23 20 18 16
20 11 33 30 25 23 16 17 20 18 14 15 8 8 7 8 4 6 10 11 14 15 16 14 16 24 17 18 20 24 26 28 32 32 33 34 33 36 33 34 30 26 22 20
13 22 12 28 25 17 20 18 15 13 15 15 10 10 11 9 7 7 9 15 16 18 15 13 12 9 7 7 11 14 18 22 26 32 35 38 37 40 40 39 33 28 26 25
Wind_Direction
230 232 234 232 200 216 193 197 212 220 154 184 205 194 194 194 196 199 195 199 199 197 197 210 196 194 218 224 242 217 192 206 220 211 216 198 195 207 189 184 193 175 185 226
224 227 233 240 168 217 214 202 247 186 152 202 206 226 189 200 202 207 203 206 202 200 199 207 200 194 203 215 240 208 211 216 215 222 220 207 219 214 199 197 183 191 192 175
224 226 234 243 230 222 244 259 181 244 212 221 218 251 191 179 222 215 217 213 210 205 200 200 200 197 195 223 231 215 221 213 213 221 212 184 241 244 243 206 203 214 207 183
227 236 229 235 244 237 248 242 210 200 246 231 228 262 204 221 231 232 221 218 215 210 204 206 205 196 203 230 250 217 218 221 223 229 228 209 234 236 244 274 274 245 240 203
232 232 236 245 236 233 251 283 256 272 253 241 224 198 222 244 230 229 224 220 215 221 210 205 205 206 208 222 249 250 217 224 224 231 246 226 226 229 200 209 269 227 234 214
236 234 230 238 240 241 245 253 253 261 265 268 263 181 187 159 188 259 227 213 213 215 213 206 206 213 206 224 238 255 244 229 234 230 244 241 239 257 227 215 267 243 222 215
234 237 236 233 239 234 236 250 261 253 237 246 254 89 160 181 177 199 195 217 209 207 214 210 203 206 218 214 233 243 261 235 241 240 244 246 250 262 265 223 231 239 241 216
222 223 231 227 230 235 229 231 239 249 245 270 6 91 332 218 152 173 193 198 198 205 209 208 202 205 220 225 225 233 249 253 238 242 245 247 249 258 273 271 269 255 269 234
237 227 232 220 223 222 233 222 235 261 275 13 270 90 173 199 176 181 178 182 189 201 197 205 206 200 216 225 223 234 247 243 234 235 239 242 246 247 257 264 268 271 272 249
244 273 262 217 215 226 228 233 240 238 263 282 286 20 239 198 204 222 160 173 183 196 196 201 200 199 202 218 216 236 245 226 226 227 228 231 234 244 253 265 256 270 294 340
230 244 240 214 210 226 221 234 245 262 261 254 198 256 223 198 200 169 187 197 194 186 197 196 200 201 200 211 211 232 236 213 214 215 211 200 205 219 235 271 267 270 273 14
222 234 249 208 233 234 230 227 231 246 256 268 273 114 88 194 267 206 226 167 185 188 198 190 196 202 198 208 217 232 225 223 221 198 216 211 216 236 242 265 278 287 263 322
214 226 252 259 222 204 223 233 236 235 246 263 272 262 261 235 269 277 253 192 180 183 202 188 194 201 200 216 231 224 221 225 215 207 196 218 237 261 271 252 309 264 270 233
224 232 220 240 238 216 206 216 228 236 232 241 254 263 217 207 248 275 244 193 191 194 201 189 195 202 205 220 229 233 216 212 197 214 243 287 213 243 265 275 250 315 322 247
221 237 250 247 264 263 219 212 219 231 236 241 234 248 253 221 181 149 98 149 183 196 198 193 196 203 210 215 227 241 224 213 207 202 223 246 230 222 242 268 278 264 306 251
213 231 249 264 266 257 237 247 223 223 234 248 255 266 261 311 84 208 248 204 215 234 196 202 194 208 215 218 222 233 227 221 230 232 227 266 266 237 236 239 251 242 260 244
213 223 232 247 241 261 224 241 233 216 220 232 244 250 251 276 273 150 214 253 222 238 211 205 197 211 220 193 187 207 219 230 241 237 243 255 260 231 231 229 236 248 282 267
227 222 230 240 248 239 243 238 219 222 222 220 228 247 249 245 229 272 270 243 238 222 231 206 208 204 220 218 209 215 220 234 240 239 242 253 252 223 226 230 243 263 274 257
239 275 220 255 239 234 233 217 219 206 207 209 228 234 239 243 197 231 217 224 223 217 241 215 215 192 217 223 198 202 206 226 232 241 246 248 245 211 225 233 249 267 263 260
233 201 258 257 288 248 228 226 210 210 218 183 195 234 242 18 242 247 240 259 215 209 232 226 204 194 211 228 217 204 206 220 229 223 237 246 219 205 220 240 248 259 248 252
238 232 193 242 267 221 267 167 169 175 155 165 177 205 238 271 259 296 253 318 255 180 203 209 198 199 206 227 225 220 216 218 223 222 225 221 205 212 217 230 257 248 237 234
235 234 241 239 256 237 230 216 235 171 154 146 205 236 251 306 17 272 249 275 247 189 180 198 197 208 198 228 229 234 227 223 219 220 221 218 209 214 216 226 233 243 229 223
244 229 232 240 241 248 208 237 187 218 210 196 226 230 268 315 286 245 270 267 248 203 209 200 202 201 207 223 235 235 233 228 223 219 221 220 214 216 218 226 233 239 222 222
257 231 231 232 232 188 113 159 211 206 209 225 235 245 263 306 258 213 261 252 238 201 206 212 204 195 211 229 234 236 236 230 226 221 223 224 218 219 218 226 230 232 223 215
238 272 228 224 228 185 185 178 194 192 196 215 231 250 277 288 237 169 239 219 192 182 181 184 187 204 226 238 244 243 239 236 230 226 226 228 226 223 223 227 226 225 223 217
232 221 255 216 202 195 197 167 161 171 190 205 211 242 265 270 262 201 210 227 216 188 187 188 187 200 212 230 245 254 254 245 237 231 232 229 230 227 227 231 231 232 225 221